Date String (YYYY-MM-DD hh:mm:ss) UTC,Instrument flags,Ambient pressure (hPa),Sample flow (lpm),Bypass flow (lpm),Sample temperature (°C),Ambient temperature (°C),ASC tube jacket temperature (°C),LED temperature (°C),Box temperature (°C),Sample RH (%),Span deviation,Mass concentration (μg/m³),Mass concentration (μg/m³),Mass concentration (μg/m³)
DateTimeUTC,F1_M11,P_M11,Q1_M11,Q2_M11,T1_M11,T2_M11,T3_M11,T4_M11,T5_M11,U1_M11,ZSPAN_M11,X0_M11,X2_M11,X1_M11
2023-02-12 11:00:00,,0822.6,4.99,0.00,21.7,20.0,00.0,30.7,23.3,08.7,0000.0,0003.96,0002.06,0001.72
2023-02-12 11:01:00,,0822.6,5.02,0.00,21.7,19.9,00.0,30.7,23.3,08.6,0000.0,0003.82,0002.02,0001.72
2023-02-12 11:02:00,,0822.6,5.00,0.00,21.7,19.8,00.0,30.7,23.3,08.5,0000.0,0003.82,0002.03,0001.72
2023-02-12 11:03:00,,0822.6,4.97,0.00,21.7,20.3,00.0,30.7,23.4,08.5,0000.0,0003.85,0002.04,0001.72
2023-02-12 11:04:00,,0822.6,5.03,0.00,21.8,21.7,00.0,30.6,23.7,08.6,0000.0,0003.94,0002.09,0001.72
2023-02-12 11:05:00,,0822.6,5.00,0.00,21.9,22.6,00.0,30.7,24.0,08.5,0000.0,0004.04,0002.11,0001.71
2023-02-12 11:06:00,,0822.6,4.96,0.00,22.0,22.2,00.0,30.7,24.0,08.4,0000.0,0004.17,0002.15,0001.70
2023-02-12 11:07:00,,0822.6,4.92,0.00,22.0,21.7,00.0,30.8,23.9,08.4,0000.0,0004.13,0002.15,0001.69
2023-02-12 11:08:00,,0822.6,4.98,0.00,22.0,21.4,00.0,30.8,23.9,08.4,0000.0,0004.12,0002.08,0001.68
2023-02-12 11:09:00,,0822.6,5.00,0.00,22.0,21.1,00.0,30.8,23.8,08.4,0000.0,0004.65,0002.04,0001.67
2023-02-12 11:10:00,,0822.6,4.98,0.00,22.0,21.0,00.0,30.8,23.8,08.4,0000.0,0004.50,0002.02,0001.67
2023-02-12 11:11:00,,0822.6,5.03,0.00,22.0,20.9,00.0,30.8,23.8,08.4,0000.0,0004.30,0002.00,0001.66
2023-02-12 11:12:00,,0822.6,5.03,0.00,22.1,20.8,00.0,30.8,23.8,08.4,0000.0,0004.33,0001.99,0001.65
2023-02-12 11:13:00,,0822.7,5.02,0.00,22.0,20.7,00.0,30.8,23.8,08.3,0000.0,0004.69,0001.97,0001.66
2023-02-12 11:14:00,,0822.6,5.00,0.00,22.0,20.6,00.0,30.9,23.8,08.3,0000.0,0004.81,0001.93,0001.66
2023-02-12 11:15:00,,0822.6,4.98,0.00,22.0,20.6,00.0,30.9,23.8,08.4,0000.0,0004.74,0001.88,0001.66
2023-02-12 11:16:00,,0822.6,5.02,0.00,22.0,20.5,00.0,30.9,23.7,08.4,0000.0,0004.65,0001.87,0001.67
2023-02-12 11:17:00,,0822.6,4.97,0.00,22.0,20.5,00.0,30.9,23.7,08.4,0000.0,0004.56,0001.86,0001.69
2023-02-12 11:18:00,,0822.6,5.01,0.00,22.0,20.4,00.0,30.9,23.7,08.5,0000.0,0004.56,0001.88,0001.70
2023-02-12 11:19:00,,0822.6,5.00,0.00,22.0,20.4,00.0,30.9,23.7,08.5,0000.0,0004.24,0001.93,0001.72
2023-02-12 11:20:00,,0822.6,5.00,0.00,22.0,20.3,00.0,30.9,23.7,08.4,0000.0,0003.72,0001.94,0001.71
2023-02-12 11:21:00,,0822.6,5.00,0.00,21.9,20.3,00.0,30.8,23.6,08.4,0000.0,0003.79,0001.95,0001.71
2023-02-12 11:22:00,,0822.6,5.02,0.00,21.9,20.2,00.0,30.8,23.6,08.4,0000.0,0003.86,0001.97,0001.70
2023-02-12 11:23:00,,0822.6,4.98,0.00,21.9,20.2,00.0,30.8,23.6,08.4,0000.0,0004.12,0001.97,0001.71
2023-02-12 11:24:00,,0822.6,4.98,0.00,21.9,20.1,00.0,30.8,23.5,08.4,0000.0,0004.18,0001.98,0001.70
2023-02-12 11:25:00,,0822.5,5.01,0.00,21.9,20.1,00.0,30.8,23.5,08.4,0000.0,0004.01,0001.99,0001.70
2023-02-12 11:26:00,,0822.6,4.99,0.00,21.9,20.1,00.0,30.8,23.5,08.5,0000.0,0003.99,0001.97,0001.70
2023-02-12 11:27:00,,0822.6,5.00,0.00,21.8,20.0,00.0,30.8,23.5,08.5,0000.0,0004.01,0001.96,0001.70
2023-02-12 11:28:00,,0822.6,4.98,0.00,21.8,20.4,00.0,30.8,23.6,08.5,0000.0,0003.96,0001.92,0001.69
2023-02-12 11:29:00,,0822.7,5.02,0.00,21.9,21.7,00.0,30.7,23.9,08.5,0000.0,0004.01,0001.92,0001.67
2023-02-12 11:30:00,,0822.6,5.01,0.00,22.1,22.5,00.0,30.8,24.1,08.5,0000.0,0003.78,0001.92,0001.66
2023-02-12 11:31:00,,0822.6,5.05,0.00,22.1,22.1,00.0,30.8,24.1,08.5,0000.0,0003.43,0001.91,0001.66
2023-02-12 11:32:00,,0822.7,5.01,0.00,22.1,21.7,00.0,30.9,24.0,08.5,0000.0,0003.81,0001.92,0001.67
2023-02-12 11:33:00,,0822.6,4.99,0.00,22.1,21.3,00.0,30.9,23.9,08.5,0000.0,0003.90,0001.90,0001.67
2023-02-12 11:34:00,,0822.6,5.01,0.00,22.1,21.0,00.0,30.9,23.8,08.5,0000.0,0003.71,0001.92,0001.68
2023-02-12 11:35:00,,0822.6,4.99,0.00,22.1,20.8,00.0,30.9,23.8,08.5,0000.0,0003.28,0001.91,0001.69
2023-02-12 11:36:00,,0822.6,4.99,0.00,22.1,20.6,00.0,30.9,23.8,08.5,0000.0,0003.34,0001.93,0001.70
2023-02-12 11:37:00,,0822.6,4.99,0.00,22.0,20.5,00.0,30.9,23.7,08.6,0000.0,0003.44,0001.97,0001.71
2023-02-12 11:38:00,,0822.6,5.00,0.00,22.0,20.4,00.0,30.9,23.7,08.7,0000.0,0003.61,0001.98,0001.71
2023-02-12 11:39:00,,0822.6,5.03,0.00,22.0,20.3,00.0,30.9,23.6,08.8,0000.0,0004.14,0002.02,0001.72
2023-02-12 11:40:00,,0822.6,4.97,0.00,22.0,20.2,00.0,30.9,23.6,08.8,0000.0,0005.19,0002.03,0001.75
2023-02-12 11:41:00,,0822.6,5.01,0.00,21.9,20.2,00.0,30.9,23.6,08.8,0000.0,0005.14,0002.03,0001.77
2023-02-12 11:42:00,,0822.7,4.99,0.00,21.9,20.1,00.0,30.9,23.6,09.0,0000.0,0005.14,0002.07,0001.79
2023-02-12 11:43:00,,0822.7,5.00,0.00,21.9,20.1,00.0,30.8,23.6,09.0,0000.0,0004.77,0002.08,0001.81
2023-02-12 11:44:00,,0822.7,5.01,0.00,21.9,20.1,00.0,30.8,23.6,09.1,0000.0,0004.83,0002.14,0001.83
2023-02-12 11:45:00,,0822.7,5.03,0.00,21.9,20.4,00.0,30.8,23.6,09.2,0000.0,0005.06,0002.18,0001.87
2023-02-12 11:46:00,,0822.6,5.04,0.00,22.0,21.7,00.0,30.8,23.9,09.3,0000.0,0005.05,0002.24,0001.90
2023-02-12 11:47:00,,0822.7,4.97,0.00,22.1,22.8,00.0,30.8,24.2,09.3,0000.0,0005.05,0002.29,0001.95
2023-02-12 11:48:00,,0822.6,4.99,0.00,22.2,22.8,00.0,30.8,24.3,09.3,0000.0,0005.15,0002.35,0002.01
2023-02-12 11:49:00,,0822.7,5.02,0.00,22.2,22.3,00.0,30.9,24.2,09.4,0000.0,0005.08,0002.44,0002.08
2023-02-12 11:50:00,,0822.8,4.97,0.00,22.2,21.7,00.0,30.9,24.0,09.6,0000.0,0004.71,0002.52,0002.16
2023-02-12 11:51:00,,0822.7,5.02,0.00,22.2,21.3,00.0,31.0,23.9,09.8,0000.0,0003.81,0002.61,0002.24
2023-02-12 11:52:00,,0822.7,5.00,0.00,22.2,21.0,00.0,31.0,23.9,10.0,0000.0,0003.93,0002.71,0002.34
2023-02-12 11:53:00,,0822.7,5.00,0.00,22.1,20.7,00.0,31.0,23.8,10.1,0000.0,0004.28,0002.83,0002.42
2023-02-12 11:54:00,,0822.7,5.01,0.00,22.1,20.6,00.0,31.0,23.8,10.2,0000.0,0005.82,0002.99,0002.55
2023-02-12 11:55:00,,0822.7,5.01,0.00,22.1,20.4,00.0,31.0,23.7,10.2,0000.0,0005.99,0003.12,0002.68
2023-02-12 11:56:00,,0822.7,4.98,0.00,22.0,20.3,00.0,31.0,23.7,10.2,0000.0,0006.22,0003.20,0002.80
2023-02-12 11:57:00,,0822.7,4.99,0.00,22.0,20.2,00.0,31.0,23.6,10.3,0000.0,0007.02,0003.28,0002.93
2023-02-12 11:58:00,,0822.7,4.99,0.00,22.0,20.1,00.0,30.9,23.6,10.4,0000.0,0007.86,0003.36,0003.03
2023-02-12 11:59:00,,0822.8,5.02,0.00,21.9,20.0,00.0,30.9,23.5,10.5,0000.0,0008.26,0003.42,0003.12
